Terminal Aerodrome Forecast
Issued by NWS Shreveport, LA

Home | Current Version | Previous Version | Text Only | Print | Product List | Glossary On
Versions: 1 2 3 4 5 6 7 8 9 10 11 12 13 14 15 16
042
FTUS44 KSHV 262136 AAA
TAFLFK
TAF AMD
KLFK 262136Z 2622/2718 30015G25KT P6SM VCTS SCT040 OVC080CB
      TEMPO 2622/2623 -TSRA BKN015 OVC025CB
     FM270000 26016KT P6SM SKC
     FM270100 30010KT P6SM SCT030
     FM270600 34005KT P6SM SKC=

USA.gov is the U.S. government's official web portal to all federal, state and local government web resources and services.